Terminal Aerodrome Forecast
Issued by NWS Glasgow, MT

Home | Current Version | Previous Version | Text Only | Print | Product List | Glossary On
Versions: 1 2 3 4 5 6 7 8 9 10 11 12 13 14 15 16 17
000
FTUS45 KGGW 222000 AAA
TAFGGW
TAF AMD
KGGW 222039Z 2221/2318 33017KT P6SM VCSH OVC014
     FM230000 32014KT P6SM OVC015
     FM231200 31009KT P6SM BKN029=

USA.gov is the U.S. government's official web portal to all federal, state and local government web resources and services.